Location: Dover
(48.8500°N, 53.9833°W)
Time: 06:23:16
(UTC+00:00)

Cosmos 2026 Rocket - Pass Details

Date: 14 November 2025
Orbit: 938 x 1000 km, 82.9° (Epoch: 12 December)

Event Time Altitude Azimuth Distance (km) Brightness Sun altitude
Rises 21:53:36 0° 355° (N) 3,612 7.0 -19.2°
Reaches altitude 10° 21:56:17 10° 4° (N) 2,666 6.2 -19.6°
Maximum altitude 22:01:55 38° 71° (ENE) 1,403 4.3 -20.5°
Enters shadow 22:02:22 38° 81° (E) 1,415 4.3 -20.6°
